| time (UTC) | temp F | wind direction | speed knots | gust knots | rain 1hr in | rain 24hr in | rain mn in | humidity % | barometer mb |
| 20260507011119 | 60 | 140 | 4.3 | 7.8 | 0.02 | 0.19 | 0.19 | 80 | 1010.8 |
| 20260507010523 | 60 | 152 | 4.3 | 9.6 | 0.02 | 0.19 | 0.19 | 81 | 1010.6 |
| 20260507005923 | 61 | 141 | 5.2 | 11.3 | 0.02 | 0.19 | 0.19 | 81 | 1010.2 |
| 20260507005317 | 62 | 138 | 4.3 | 12.2 | 0.02 | 0.19 | 0.19 | 81 | 1010.3 |
| 20260507004815 | 63 | 137 | 6.1 | 12.2 | 0.02 | 0.19 | 0.19 | 75 | 1010.2 |
| 20260507004133 | 63 | 92 | 1.7 | 8.7 | 0.02 | 0.19 | 0.19 | 73 | 1010.1 |
| 20260507003517 | 63 | 85 | 3.5 | 8.7 | 0.02 | 0.19 | 0.19 | 74 | 1010.2 |
| 20260507002917 | 63 | 84 | 3.5 | 8.7 | 0.02 | 0.19 | 0.19 | 73 | 1010.0 |
| 20260507002317 | 63 | 85 | 1.7 | 5.2 | 0.02 | 0.19 | 0.19 | 74 | 1009.6 |
| 20260507001720 | 64 | 0 | 0.0 | 4.3 | 0.02 | 0.19 | 0.19 | 75 | 1009.3 |
| 20260507001133 | 64 | 81 | 1.7 | 6.1 | 0.00 | 0.17 | 0.17 | 77 | 1009.3 |
| 20260507000553 | 65 | 100 | 1.7 | 4.3 | 0.00 | 0.17 | 0.17 | 79 | 1009.2 |
| 20260506235941 | 65 | 121 | 1.7 | 3.5 | 0.00 | 0.17 | 0.17 | 79 | 1009.2 |
| 20260506235511 | 65 | 82 | 0.9 | 2.6 | 0.00 | 0.17 | 0.17 | 80 | 1009.1 |
| 20260506234815 | 65 | 0 | 0.0 | 2.6 | 0.00 | 0.17 | 0.17 | 80 | 1009.0 |
| 20260506234120 | 65 | 75 | 0.9 | 3.5 | 0.00 | 0.17 | 0.17 | 80 | 1008.9 |
| 20260506233527 | 66 | 71 | 0.9 | 4.3 | 0.00 | 0.17 | 0.17 | 80 | 1008.9 |
| 20260506233046 | 66 | 67 | 1.7 | 4.3 | 0.00 | 0.17 | 0.17 | 80 | 1008.9 |
| 20260506232801 | 66 | 75 | 2.6 | 5.2 | 0.00 | 0.17 | 0.17 | 80 | 1009.0 |
| 20260506231717 | 66 | 81 | 2.6 | 5.2 | 0.00 | 0.17 | 0.17 | 80 | 1009.0 |
| 20260506231118 | 66 | 0 | 0.0 | 4.3 | 0.00 | 0.17 | 0.17 | 80 | 1008.9 |
| 20260506230746 | 66 | 78 | 1.7 | 4.3 | 0.00 | 0.17 | 0.17 | 80 | 1008.9 |
| 20260506225917 | 66 | 78 | 2.6 | 6.1 | 0.00 | 0.17 | 0.17 | 81 | 1008.9 |
| 20260506225316 | 66 | 77 | 3.5 | 6.1 | 0.00 | 0.17 | 0.17 | 81 | 1008.8 |
| 20260506224725 | 66 | 70 | 1.7 | 6.1 | 0.00 | 0.17 | 0.17 | 81 | 1008.8 |
| 20260506224127 | 66 | 79 | 3.5 | 6.1 | 0.00 | 0.17 | 0.17 | 81 | 1008.8 |
| 20260506223621 | 66 | 74 | 2.6 | 7.0 | 0.00 | 0.17 | 0.17 | 81 | 1008.8 |
| 20260506222917 | 66 | 79 | 3.5 | 7.8 | 0.00 | 0.17 | 0.17 | 81 | 1008.9 |
| 20260506222545 | 66 | 81 | 4.3 | 7.8 | 0.00 | 0.17 | 0.17 | 81 | 1008.8 |
| 20260506221809 | 67 | 78 | 4.3 | 7.8 | 0.00 | 0.17 | 0.17 | 81 | 1008.7 |
| 20260506221259 | 67 | 53 | 1.7 | 6.1 | 0.00 | 0.17 | 0.17 | 81 | 1008.5 |
| 20260506220526 | 67 | 69 | 1.7 | 7.0 | 0.00 | 0.17 | 0.17 | 81 | 1008.5 |
| 20260506220136 | 66 | 83 | 5.2 | 9.6 | 0.00 | 0.17 | 0.17 | 81 | 1008.6 |
| 20260506214725 | 66 | 84 | 4.3 | 9.6 | 0.00 | 0.17 | 0.17 | 81 | 1008.7 |
| 20260506214129 | 66 | 80 | 4.3 | 7.8 | 0.00 | 0.17 | 0.17 | 81 | 1008.7 |
| 20260506213522 | 66 | 84 | 5.2 | 10.4 | 0.00 | 0.17 | 0.17 | 81 | 1008.4 |
| 20260506213437 | 67 | 72 | 3.5 | 10.4 | 0.00 | 0.17 | 0.17 | 81 | 1008.4 |
| 20260506212317 | 67 | 77 | 5.2 | 13.0 | 0.00 | 0.17 | 0.17 | 81 | 1008.3 |
| 20260506211717 | 66 | 86 | 6.1 | 10.4 | 0.00 | 0.17 | 0.17 | 81 | 1008.3 |
| 20260506211117 | 66 | 82 | 5.2 | 11.3 | 0.00 | 0.17 | 0.17 | 81 | 1008.2 |
| 20260506210616 | 66 | 75 | 6.1 | 12.2 | 0.00 | 0.17 | 0.17 | 80 | 1008.1 |
| 20260506205917 | 66 | 86 | 7.0 | 12.2 | 0.00 | 0.17 | 0.17 | 81 | 1008.0 |
| 20260506205327 | 66 | 80 | 5.2 | 12.2 | 0.00 | 0.17 | 0.17 | 80 | 1008.0 |
| 20260506204717 | 66 | 87 | 7.0 | 10.4 | 0.00 | 0.17 | 0.17 | 81 | 1008.2 |
| 20260506204140 | 66 | 84 | 6.1 | 12.2 | 0.00 | 0.17 | 0.17 | 80 | 1008.1 |
| 20260506203529 | 66 | 81 | 7.0 | 12.2 | 0.00 | 0.17 | 0.17 | 80 | 1008.1 |
| 20260506202918 | 65 | 81 | 5.2 | 12.2 | 0.00 | 0.17 | 0.17 | 80 | 1008.1 |
| 20260506202610 | 65 | 84 | 7.0 | 14.8 | 0.00 | 0.17 | 0.17 | 80 | 1008.1 |
| 20260506201811 | 65 | 84 | 10.4 | 15.6 | 0.00 | 0.17 | 0.17 | 80 | 1008.0 |
| 20260506200148 | 65 | 86 | 7.8 | 14.8 | 0.00 | 0.17 | 0.17 | 80 | 1008.1 |
| 20260506195418 | 65 | 83 | 7.8 | 15.6 | 0.00 | 0.17 | 0.17 | 78 | 1008.1 |
| 20260506194801 | 65 | 86 | 8.7 | 15.6 | 0.00 | 0.17 | 0.17 | 79 | 1008.2 |
| 20260506194223 | 65 | 83 | 8.7 | 19.1 | 0.00 | 0.17 | 0.17 | 80 | 1008.2 |
| 20260506193526 | 65 | 93 | 13.9 | 19.1 | 0.00 | 0.17 | 0.17 | 80 | 1008.2 |
| 20260506192917 | 66 | 89 | 9.6 | 17.4 | 0.00 | 0.17 | 0.17 | 77 | 1008.4 |
| 20260506192524 | 65 | 86 | 9.6 | 17.4 | 0.00 | 0.17 | 0.17 | 76 | 1008.3 |
| 20260506192154 | 65 | 78 | 7.8 | 13.0 | 0.00 | 0.17 | 0.17 | 71 | 1008.3 |
| 20260506191340 | 63 | 78 | 7.0 | 13.9 | 0.00 | 0.17 | 0.17 | 63 | 1008.5 |
| 20260506185929 | 63 | 86 | 7.8 | 16.5 | 0.00 | 0.17 | 0.17 | 53 | 1008.4 |
| 20260506185318 | 63 | 87 | 7.0 | 16.5 | 0.00 | 0.17 | 0.17 | 35 | 1008.5 |
| 20260506184719 | 63 | 81 | 10.4 | 14.8 | 0.00 | 0.17 | 0.17 | 25 | 1008.6 |
| 20260506184116 | 63 | 61 | 7.8 | 12.2 | 0.00 | 0.17 | 0.17 | 24 | 1008.5 |
| 20260506183518 | 62 | 79 | 7.0 | 14.8 | 0.00 | 0.17 | 0.17 | 25 | 1008.8 |
| 20260506182920 | 61 | 74 | 6.1 | 10.4 | 0.00 | 0.17 | 0.17 | 25 | 1008.9 |
| 20260506182318 | 61 | 54 | 6.1 | 10.4 | 0.00 | 0.17 | 0.17 | 26 | 1008.9 |
| 20260506181717 | 61 | 71 | 7.0 | 10.4 | 0.00 | 0.17 | 0.17 | 26 | 1009.1 |
| 20260506181116 | 60 | 64 | 6.1 | 12.2 | 0.00 | 0.17 | 0.17 | 26 | 1009.1 |
| 20260506180520 | 60 | 65 | 7.0 | 11.3 | 0.00 | 0.17 | 0.17 | 27 | 1009.2 |
| 20260506175917 | 60 | 69 | 7.0 | 15.6 | 0.00 | 0.17 | 0.17 | 27 | 1009.2 |
| 20260506175323 | 60 | 76 | 8.7 | 15.6 | 0.00 | 0.17 | 0.17 | 27 | 1009.3 |
| 20260506174717 | 60 | 74 | 7.0 | 15.6 | 0.00 | 0.17 | 0.17 | 27 | 1009.3 |
| 20260506174119 | 60 | 73 | 8.7 | 15.6 | 0.00 | 0.17 | 0.17 | 27 | 1009.3 |
| 20260506173535 | 60 | 64 | 7.0 | 14.8 | 0.00 | 0.17 | 0.17 | 27 | 1009.2 |
| 20260506172921 | 60 | 73 | 8.7 | 14.8 | 0.00 | 0.17 | 0.17 | 27 | 1009.1 |
| 20260506172321 | 60 | 63 | 7.0 | 15.6 | 0.00 | 0.17 | 0.17 | 27 | 1009.1 |
| 20260506171718 | 60 | 55 | 7.0 | 15.6 | 0.00 | 0.17 | 0.17 | 27 | 1009.1 |
| 20260506171121 | 60 | 73 | 7.8 | 13.9 | 0.00 | 0.17 | 0.17 | 27 | 1009.0 |
| 20260506170517 | 60 | 50 | 7.0 | 12.2 | 0.00 | 0.17 | 0.17 | 27 | 1009.0 |
| 20260506165926 | 60 | 54 | 7.0 | 14.8 | 0.00 | 0.17 | 0.17 | 27 | 1009.1 |
| 20260506165318 | 59 | 55 | 7.8 | 14.8 | 0.01 | 0.17 | 0.17 | 28 | 1009.2 |
| 20260506164719 | 60 | 56 | 6.1 | 14.8 | 0.01 | 0.17 | 0.17 | 28 | 1009.2 |
| 20260506164120 | 60 | 62 | 7.0 | 14.8 | 0.02 | 0.17 | 0.17 | 28 | 1009.3 |
| 20260506163522 | 60 | 55 | 7.0 | 13.0 | 0.02 | 0.17 | 0.17 | 28 | 1009.2 |
| 20260506162917 | 60 | 50 | 7.8 | 13.9 | 0.02 | 0.17 | 0.17 | 28 | 1009.4 |
| 20260506162316 | 60 | 57 | 8.7 | 18.2 | 0.02 | 0.17 | 0.17 | 28 | 1009.3 |
| 20260506161722 | 60 | 43 | 8.7 | 20.0 | 0.03 | 0.17 | 0.17 | 28 | 1009.4 |
| 20260506161117 | 60 | 32 | 7.0 | 14.8 | 0.03 | 0.17 | 0.17 | 27 | 1009.3 |
| 20260506160517 | 60 | 37 | 5.2 | 17.4 | 0.04 | 0.17 | 0.17 | 28 | 1009.0 |
| 20260506155937 | 60 | 29 | 8.7 | 17.4 | 0.05 | 0.17 | 0.17 | 28 | 1008.8 |
| 20260506155322 | 60 | 29 | 9.6 | 15.6 | 0.05 | 0.16 | 0.16 | 28 | 1008.7 |
| 20260506154720 | 60 | 31 | 7.8 | 14.8 | 0.06 | 0.16 | 0.16 | 28 | 1009.0 |
| 20260506154122 | 60 | 42 | 7.8 | 16.5 | 0.06 | 0.15 | 0.15 | 28 | 1009.4 |
| 20260506153527 | 60 | 31 | 7.0 | 13.9 | 0.07 | 0.15 | 0.15 | 28 | 1009.8 |
| 20260506152917 | 60 | 48 | 7.8 | 13.9 | 0.07 | 0.15 | 0.15 | 29 | 1009.9 |
| 20260506152317 | 59 | 48 | 7.8 | 12.2 | 0.08 | 0.15 | 0.15 | 29 | 1010.1 |
| 20260506151731 | 59 | 36 | 6.1 | 12.2 | 0.07 | 0.14 | 0.14 | 29 | 1010.1 |
| 20260506151129 | 59 | 40 | 7.0 | 11.3 | 0.08 | 0.14 | 0.14 | 29 | 1010.2 |
| 20260506150519 | 59 | 37 | 5.2 | 13.9 | 0.07 | 0.13 | 0.13 | 29 | 1010.1 |
| 20260506145918 | 59 | 36 | 6.1 | 16.5 | 0.07 | 0.12 | 0.12 | 30 | 1010.3 |
| 20260506145321 | 59 | 31 | 7.0 | 16.5 | 0.07 | 0.11 | 0.11 | 30 | 1010.3 |
| 20260506144726 | 59 | 41 | 7.0 | 12.2 | 0.06 | 0.10 | 0.10 | 30 | 1010.1 |
| 20260506144116 | 59 | 35 | 7.8 | 13.9 | 0.06 | 0.09 | 0.09 | 30 | 1010.1 |
| 20260506143524 | 59 | 34 | 6.1 | 14.8 | 0.06 | 0.08 | 0.08 | 30 | 1009.9 |
| 20260506142919 | 59 | 39 | 8.7 | 13.9 | 0.06 | 0.08 | 0.08 | 31 | 1010.0 |
| 20260506142316 | 59 | 35 | 5.2 | 12.2 | 0.06 | 0.07 | 0.07 | 31 | 1010.0 |
| 20260506141801 | 59 | 45 | 5.2 | 12.2 | 0.06 | 0.07 | 0.07 | 31 | 1010.1 |
| 20260506141116 | 59 | 40 | 6.1 | 11.3 | 0.05 | 0.06 | 0.06 | 32 | 1010.0 |
| 20260506140519 | 59 | 33 | 5.2 | 10.4 | 0.05 | 0.06 | 0.06 | 32 | 1010.1 |
| 20260506135927 | 59 | 33 | 4.3 | 11.3 | 0.05 | 0.05 | 0.05 | 33 | 1009.9 |
| 20260506135323 | 59 | 46 | 6.1 | 11.3 | 0.04 | 0.04 | 0.04 | 33 | 1009.9 |
| 20260506134825 | 59 | 32 | 5.2 | 9.6 | 0.04 | 0.04 | 0.04 | 33 | 1010.1 |
| 20260506134131 | 59 | 49 | 5.2 | 9.6 | 0.03 | 0.03 | 0.03 | 34 | 1010.1 |
| 20260506133518 | 59 | 44 | 3.5 | 8.7 | 0.02 | 0.02 | 0.02 | 34 | 1010.1 |
| 20260506132921 | 59 | 28 | 5.2 | 11.3 | 0.02 | 0.02 | 0.02 | 35 | 1010.1 |
| 20260506132319 | 59 | 40 | 5.2 | 8.7 | 0.01 | 0.01 | 0.01 | 35 | 1010.1 |
| 20260506131740 | 59 | 28 | 2.6 | 8.7 | 0.01 | 0.01 | 0.01 | 35 | 1010.1 |
| 20260506131116 | 59 | 36 | 5.2 | 9.6 | 0.01 | 0.01 | 0.01 | 36 | 1010.2 |
| 20260506130518 | 59 | 39 | 3.5 | 10.4 | 0.01 | 0.01 | 0.01 | 37 | 1010.4 |
| 20260506125935 | 58 | 37 | 4.3 | 10.4 | 0.00 | 0.00 | 0.00 | 39 | 1010.3 |
| 20260506125317 | 58 | 39 | 3.5 | 7.8 | 0.00 | 0.00 | 0.00 | 40 | 1010.3 |
| 20260506124718 | 58 | 30 | 3.5 | 9.6 | 0.00 | 0.00 | 0.00 | 41 | 1010.3 |
| 20260506124133 | 58 | 46 | 5.2 | 12.2 | 0.00 | 0.00 | 0.00 | 43 | 1010.4 |
| 20260506123522 | 58 | 51 | 4.3 | 12.2 | 0.00 | 0.00 | 0.00 | 45 | 1010.6 |
| 20260506122916 | 58 | 49 | 4.3 | 9.6 | 0.00 | 0.00 | 0.00 | 48 | 1010.6 |
| 20260506122316 | 58 | 49 | 3.5 | 11.3 | 0.00 | 0.00 | 0.00 | 51 | 1010.6 |
| 20260506121719 | 58 | 47 | 6.1 | 12.2 | 0.00 | 0.00 | 0.00 | 57 | 1010.5 |
| 20260506121119 | 59 | 28 | 5.2 | 12.2 | 0.00 | 0.00 | 0.00 | 66 | 1010.3 |
| 20260506120519 | 61 | 56 | 7.0 | 12.2 | 0.00 | 0.00 | 0.00 | 79 | 1010.3 |
| 20260506115919 | 63 | 60 | 6.1 | 12.2 | 0.00 | 0.00 | 0.00 | 81 | 1010.3 |
| 20260506115316 | 63 | 52 | 7.0 | 16.5 | 0.00 | 0.00 | 0.00 | 80 | 1010.1 |
| 20260506114717 | 63 | 40 | 6.1 | 16.5 | 0.00 | 0.00 | 0.00 | 80 | 1010.0 |
| 20260506114121 | 63 | 55 | 6.1 | 13.0 | 0.00 | 0.00 | 0.00 | 80 | 1010.0 |
| 20260506113518 | 63 | 37 | 7.0 | 13.0 | 0.00 | 0.00 | 0.00 | 80 | 1010.0 |
| 20260506112919 | 63 | 51 | 5.2 | 14.8 | 0.00 | 0.00 | 0.00 | 80 | 1010.0 |
| 20260506112319 | 63 | 57 | 7.8 | 14.8 | 0.00 | 0.00 | 0.00 | 80 | 1009.9 |
| 20260506111717 | 63 | 47 | 8.7 | 17.4 | 0.00 | 0.00 | 0.00 | 80 | 1009.8 |
| 20260506111116 | 63 | 43 | 11.3 | 17.4 | 0.00 | 0.00 | 0.00 | 80 | 1009.6 |
| 20260506110518 | 64 | 49 | 7.0 | 13.9 | 0.00 | 0.00 | 0.00 | 80 | 1009.6 |
| 20260506105916 | 64 | 33 | 8.7 | 14.8 | 0.00 | 0.00 | 0.00 | 80 | 1009.5 |
| 20260506105319 | 64 | 36 | 7.8 | 18.2 | 0.00 | 0.00 | 0.00 | 79 | 1009.5 |
| 20260506104729 | 64 | 38 | 8.7 | 18.2 | 0.00 | 0.00 | 0.00 | 79 | 1009.5 |
| 20260506104118 | 64 | 49 | 10.4 | 18.2 | 0.00 | 0.00 | 0.00 | 79 | 1009.5 |
| 20260506103518 | 64 | 39 | 11.3 | 17.4 | 0.00 | 0.00 | 0.00 | 79 | 1009.4 |
| 20260506102917 | 64 | 39 | 7.8 | 17.4 | 0.00 | 0.00 | 0.00 | 79 | 1009.3 |
| 20260506102319 | 0 | 0.0 | 0.0 | 0.00 | 0.00 | 0.00 | 1009.3 | ||
| 20260506101716 | 0 | 0.0 | 0.0 | 0.00 | 0.00 | 0.00 | 1009.4 | ||
| 20260506101116 | 0 | 0.0 | 0.0 | 0.00 | 0.00 | 0.00 | 1009.2 | ||
| 20260506100519 | 0 | 0.0 | 0.0 | 0.00 | 0.00 | 0.00 | 1009.3 | ||
| 20260506095918 | 0 | 0.0 | 0.0 | 0.00 | 0.00 | 0.00 | 1009.2 | ||
| 20260506095316 | 0 | 0.0 | 0.0 | 0.00 | 0.00 | 0.00 | 1009.3 | ||
| 20260506094718 | 0 | 0.0 | 0.0 | 0.00 | 0.00 | 0.00 | 1009.3 | ||
| 20260506094116 | 0 | 0.0 | 0.0 | 0.00 | 0.00 | 0.00 | 1009.3 | ||
| 20260506093520 | 0 | 0.0 | 0.0 | 0.00 | 0.00 | 0.00 | 1009.3 | ||
| 20260506092920 | 0 | 0.0 | 0.0 | 0.00 | 0.00 | 0.00 | 1009.3 | ||
| 20260506092320 | 0 | 0.0 | 0.0 | 0.00 | 0.00 | 0.00 | 1009.3 | ||
| 20260506091720 | 0 | 0.0 | 0.0 | 0.00 | 0.00 | 0.00 | 1009.4 | ||
| 20260506091116 | 0 | 0.0 | 0.0 | 0.00 | 0.00 | 0.00 | 1009.5 | ||
| 20260506090517 | 0 | 0.0 | 0.0 | 0.00 | 0.00 | 0.00 | 1009.5 | ||
| 20260506085916 | 0 | 0.0 | 0.0 | 0.00 | 0.00 | 0.00 | 1009.4 | ||
| 20260506085316 | 0 | 0.0 | 0.0 | 0.00 | 0.00 | 0.00 | 1009.5 | ||
| 20260506084717 | 0 | 0.0 | 0.0 | 0.00 | 0.00 | 0.00 | 1009.6 | ||
| 20260506084116 | 0 | 0.0 | 0.0 | 0.00 | 0.00 | 0.00 | 1009.5 | ||
| 20260506083519 | 0 | 0.0 | 0.0 | 0.00 | 0.00 | 0.00 | 1009.6 | ||
| 20260506082916 | 0 | 0.0 | 0.0 | 0.00 | 0.00 | 0.00 | 1009.5 | ||
| 20260506082316 | 0 | 0.0 | 0.0 | 0.00 | 0.00 | 0.00 | 1009.5 | ||
| 20260506081720 | 0 | 0.0 | 0.0 | 0.00 | 0.00 | 0.00 | 1009.6 | ||
| 20260506081116 | 0 | 0.0 | 0.0 | 0.00 | 0.00 | 0.00 | 1009.6 | ||
| 20260506080519 | 0 | 0.0 | 0.0 | 0.00 | 0.00 | 0.00 | 1009.5 | ||
| 20260506073520 | 0 | 0.0 | 0.0 | 0.00 | 0.00 | 0.00 | 1009.8 | ||
| 20260506072928 | 0 | 0.0 | 0.0 | 0.00 | 0.00 | 0.00 | 1009.7 | ||
| 20260506072317 | 0 | 0.0 | 0.0 | 0.00 | 0.00 | 0.00 | 1009.7 | ||
| 20260506071717 | 0 | 0.0 | 0.0 | 0.00 | 0.00 | 0.00 | 1009.8 | ||
| 20260506071132 | 0 | 0.0 | 0.0 | 0.00 | 0.00 | 0.00 | 1009.9 | ||
| 20260506070517 | 0 | 0.0 | 0.0 | 0.00 | 0.00 | 0.00 | 1009.9 | ||
| 20260506062328 | 67 | 49 | 7.8 | 7.8 | 0.00 | 0.00 | 0.00 | 1010.3 | |
| 20260506061941 | 67 | 49 | 7.8 | 12.2 | 0.00 | 0.00 | 0.00 | 66 | 1010.4 |
| 20260506061118 | 67 | 39 | 7.0 | 12.2 | 0.00 | 0.00 | 0.00 | 67 | 1010.5 |
| 20260506060623 | 67 | 32 | 7.0 | 12.2 | 0.00 | 0.00 | 0.00 | 66 | 1010.5 |
| 20260506051158 | 67 | 41 | 6.1 | 12.2 | 0.00 | 0.00 | 0.00 | 65 | 1010.7 |
| 20260506050531 | 67 | 42 | 5.2 | 12.2 | 0.00 | 0.00 | 0.00 | 64 | 1010.7 |
| 20260506044716 | 68 | 42 | 7.0 | 13.9 | 0.00 | 0.00 | 0.00 | 63 | 1010.7 |
| 20260506044117 | 68 | 38 | 9.6 | 13.9 | 0.00 | 0.00 | 0.00 | 63 | 1010.7 |
| 20260506043519 | 67 | 33 | 7.0 | 13.0 | 0.00 | 0.00 | 0.00 | 63 | 1010.8 |
| 20260506042919 | 67 | 35 | 5.2 | 11.3 | 0.00 | 0.00 | 0.00 | 64 | 1010.8 |
| 20260506042318 | 67 | 37 | 6.1 | 11.3 | 0.00 | 0.00 | 0.00 | 64 | 1010.8 |
| 20260506041715 | 66 | 36 | 4.3 | 11.3 | 0.00 | 0.00 | 0.00 | 65 | 1010.9 |
| 20260506041151 | 66 | 36 | 6.1 | 10.4 | 0.00 | 0.00 | 0.00 | 65 | 1010.8 |
| 20260506040522 | 66 | 29 | 2.6 | 7.8 | 0.00 | 0.00 | 0.00 | 65 | 1010.8 |
| 20260506040039 | 66 | 31 | 2.6 | 7.0 | 0.00 | 0.00 | 0.00 | 65 | 1010.9 |
| 20260506035319 | 66 | 32 | 3.5 | 7.0 | 0.00 | 0.00 | 0.00 | 64 | 1010.8 |
| 20260506034803 | 66 | 31 | 3.5 | 7.0 | 0.00 | 0.00 | 0.00 | 64 | 1010.9 |
| 20260506034215 | 66 | 31 | 2.6 | 6.1 | 0.00 | 0.00 | 0.00 | 64 | 1010.8 |
| 20260506033521 | 68 | 31 | 2.6 | 10.4 | 0.00 | 0.00 | 0.00 | 61 | 1010.7 |
| 20260506032316 | 68 | 35 | 5.2 | 12.2 | 0.00 | 0.00 | 0.00 | 59 | 1010.7 |
| 20260506031721 | 68 | 45 | 7.0 | 12.2 | 0.00 | 0.00 | 0.00 | 59 | 1010.7 |
| 20260506031418 | 68 | 51 | 7.0 | 11.3 | 0.00 | 0.00 | 0.00 | 59 | 1010.7 |
| 20260506030609 | 68 | 47 | 5.2 | 11.3 | 0.00 | 0.00 | 0.00 | 59 | 1010.6 |
| 20260506025925 | 68 | 43 | 5.2 | 11.3 | 0.00 | 0.00 | 0.00 | 59 | 1010.6 |
| 20260506025746 | 68 | 35 | 4.3 | 10.4 | 0.00 | 0.00 | 0.00 | 61 | 1010.6 |
| 20260506025324 | 68 | 40 | 5.2 | 10.4 | 0.00 | 0.00 | 0.00 | 59 | 1010.6 |
| 20260506024728 | 68 | 37 | 5.2 | 11.3 | 0.00 | 0.00 | 0.00 | 60 | 1010.7 |
| 20260506024314 | 68 | 35 | 4.3 | 10.4 | 0.00 | 0.00 | 0.00 | 61 | 1010.6 |
| 20260506023534 | 68 | 16 | 5.2 | 9.6 | 0.00 | 0.00 | 0.00 | 61 | 1010.6 |
| 20260506022719 | 67 | 30 | 5.2 | 9.6 | 0.00 | 0.00 | 0.00 | 62 | 1010.7 |
| 20260506021834 | 68 | 40 | 3.5 | 9.6 | 0.00 | 0.00 | 0.00 | 61 | 1010.7 |
| 20260506021118 | 68 | 30 | 3.5 | 8.7 | 0.00 | 0.00 | 0.00 | 61 | 1010.7 |
| 20260506020748 | 68 | 30 | 4.3 | 8.7 | 0.00 | 0.00 | 0.00 | 60 | 1010.7 |
| 20260506020020 | 68 | 22 | 5.2 | 8.7 | 0.00 | 0.00 | 0.00 | 60 | 1010.7 |
| 20260506015318 | 68 | 35 | 4.3 | 8.7 | 0.00 | 0.00 | 0.00 | 59 | 1010.6 |
| 20260506014717 | 68 | 28 | 2.6 | 8.7 | 0.00 | 0.00 | 0.00 | 59 | 1010.6 |
| 20260506014116 | 69 | 25 | 5.2 | 8.7 | 0.00 | 0.00 | 0.00 | 58 | 1010.5 |
| 20260506013527 | 69 | 28 | 4.3 | 7.8 | 0.00 | 0.00 | 0.00 | 58 | 1010.4 |
| 20260506012925 | 69 | 29 | 3.5 | 7.0 | 0.00 | 0.00 | 0.00 | 58 | 1010.4 |
| 20260506012317 | 69 | 36 | 4.3 | 7.0 | 0.00 | 0.00 | 0.00 | 57 | 1010.4 |
| 20260506011717 | 69 | 33 | 3.5 | 8.7 | 0.00 | 0.00 | 0.00 | 57 | 1010.3 |